FENGYUN 1C DEB

Satellite information

Favourite Embed

Satellite Type and Status

DEBRISIN ORBIT

Key statistics

Satellite FENGYUN 1C DEB at a glance.

Uptime

9715

Days in orbit

Revolutions

≈ 14.1

Per day

Orbit

SSO

Sun Synchronous Orbit

Inclination

99.4

Latest

Satellite identification and parameters

Extended collection of information and parameters for FENGYUN 1C DEB.

Object identification

Identified? True

Debris? True

Object name: FENGYUN 1C DEB

International designator: 1999-025EW

Object number (NORAD): 29852

Object ID (CCSDS): 29852

Country: PEOPLES REPUBLIC OF CHINA (PRC)

Current information (Y/N): Y

RCS size: SMALL

Orbital parameters

Period: 102.34 minutes

Inclination: 99.3716 deg

SMA: 7247.543 km

Apoapsis: 967.37 km

Periapsis: 771.446 km

RAAN: 357.397 deg

Eccentricy: 0.01351655

Argument of periapsis: 147.6718 deg

Mean anomaly: 333.6254 deg

Mean motion: 14.07072782 rev/day

Mean motion (dot): 0.00003532 rev/day2

B* drag term: 0.0019689922 1/REarth

Two-line elements (TLE)

Creation date: Dec. 14, 2025, 3:07 a.m.

Reference frame: TEME

Reference center: EARTH

Epoch: Dec. 13, 2025, 1:55 p.m. UTC

TLE line 0: 0 FENGYUN 1C DEB

TLE line 1: 1 29852U 99025EW 25347.58012356 .00003532 00000-0 19690-2 0 9992

TLE line 2: 2 29852 99.3716 357.3970 0135165 147.6718 333.6254 14.07072782959964

Live tracking on map

Real-time ground track for satellite FENGYUN 1C DEB.

In-orbit conjunctions

A list of the most updated potential collisions computed for object FENGYUN 1C DEB.

Target Orbit TCA Probability of collision Miss distance Type
SL-3 R/B LEO 2025-11-18 13:46:54 0.0003153174 545.0 (m) ROCKET BODY
FENGYUN 1C DEB SSO 2025-08-27 16:03:02 0.0001135653 782.0 (m) DEBRIS
FENGYUN 1C DEB SSO 2025-07-14 00:19:22 0.001545398 50.0 (m) DEBRIS
THORAD AGENA D DEB SSO 2024-11-13 02:12:49 0.0001405539 333.0 (m) DEBRIS

Associated space launch

Chinese polar orbiting meteorological satellite

FENGYUN 1C DEB was lifted into orbit during the mission ‘Long March 4B | Feng Yun 1C’, on board a Long March 4B space rocket.

The launch took place on May 10, 1999, 1:33 a.m. from Launch Complex 7.

For more information about the launch, click the button.

Launch to space Long March 4B | Feng Yun 1C
Long March 4B | Feng Yun 1C

Agency: N/A

Status: Launch Successful

Launch date: May 10, 1999, 1:33 a.m. UTC

Rocket: Long March 4B

Launch pad: Launch Complex 7

Location: Taiyuan Satellite Launch Center, People's Republic of China

...

Latest news about this satellite

There are no fresh news available about this satellite. Check back as we update our databases every day.


Newsletter sign-up

Weekly statistics, charts and insights to help you stay on top of the space industry.